| time (UTC) | temp F | wind direction | speed MPH | gust MPH | rain 1hr in | rain 24hr in | rain mn in | humidity % | barometer mb |
| 20260902062004 | 69 | 235 | 4.0 | 8.0 | 0.00 | 0.00 | 0.00 | 31 | 1022.7 |
| 20260902061003 | 69 | 225 | 3.0 | 5.0 | 0.00 | 0.00 | 0.00 | 31 | 1022.7 |
| 20260902055503 | 70 | 233 | 4.0 | 8.0 | 0.00 | 0.00 | 0.00 | 33 | 1022.5 |
| 20260902055005 | 70 | 225 | 2.0 | 5.0 | 0.00 | 0.00 | 0.00 | 32 | 1022.6 |
| 20260902054503 | 70 | 236 | 3.0 | 6.0 | 0.00 | 0.00 | 0.00 | 32 | 1022.5 |
| 20260902054003 | 71 | 228 | 3.0 | 7.0 | 0.00 | 0.00 | 0.00 | 31 | 1022.6 |
| 20260902053504 | 71 | 229 | 3.0 | 7.0 | 0.00 | 0.00 | 0.00 | 31 | 1022.6 |
| 20260902053003 | 71 | 235 | 5.0 | 9.0 | 0.00 | 0.00 | 0.00 | 31 | 1022.8 |
| 20260902051503 | 71 | 220 | 3.0 | 6.0 | 0.00 | 0.00 | 0.00 | 31 | 1023.0 |
| 20260902051004 | 72 | 229 | 3.0 | 6.0 | 0.00 | 0.00 | 0.00 | 30 | 1023.0 |
| 20260902050007 | 72 | 233 | 5.0 | 8.0 | 0.00 | 0.00 | 0.00 | 30 | 1022.9 |
| 20260902045504 | 72 | 223 | 4.0 | 7.0 | 0.00 | 0.00 | 0.00 | 30 | 1022.9 |
| 20260902045004 | 73 | 234 | 4.0 | 8.0 | 0.00 | 0.00 | 0.00 | 31 | 1022.9 |
| 20260902044503 | 73 | 236 | 5.0 | 10.0 | 0.00 | 0.00 | 0.00 | 30 | 1022.8 |
| 20260902044004 | 73 | 236 | 2.0 | 7.0 | 0.00 | 0.00 | 0.00 | 30 | 1022.7 |
| 20260902043004 | 73 | 239 | 3.0 | 8.0 | 0.00 | 0.00 | 0.00 | 30 | 1022.6 |
| 20260902042503 | 74 | 224 | 5.0 | 8.0 | 0.00 | 0.00 | 0.00 | 30 | 1022.3 |
| 20260902042004 | 74 | 222 | 6.0 | 10.0 | 0.00 | 0.00 | 0.00 | 29 | 1022.4 |
| 20260902041504 | 74 | 223 | 6.0 | 9.0 | 0.00 | 0.00 | 0.00 | 29 | 1022.2 |
| 20260902041003 | 74 | 195 | 8.0 | 12.0 | 0.00 | 0.00 | 0.00 | 29 | 1022.3 |
| 20260902040004 | 75 | 237 | 6.0 | 14.0 | 0.00 | 0.00 | 0.00 | 28 | 1022.2 |
| 20260902035503 | 75 | 237 | 5.0 | 9.0 | 0.00 | 0.00 | 0.00 | 28 | 1022.1 |
| 20260902034503 | 75 | 248 | 5.0 | 9.0 | 0.00 | 0.00 | 0.00 | 28 | 1022.1 |
| 20260902034003 | 75 | 216 | 6.0 | 13.0 | 0.00 | 0.00 | 0.00 | 29 | 1022.0 |
| 20260902033504 | 75 | 237 | 6.0 | 12.0 | 0.00 | 0.00 | 0.00 | 29 | 1022.0 |
| 20260902032004 | 75 | 234 | 8.0 | 14.0 | 0.00 | 0.00 | 0.00 | 29 | 1021.6 |
| 20260902031003 | 76 | 233 | 9.0 | 14.0 | 0.00 | 0.00 | 0.00 | 28 | 1021.4 |
| 20260902030504 | 76 | 240 | 9.0 | 14.0 | 0.00 | 0.00 | 0.00 | 28 | 1021.4 |
| 20260902030004 | 76 | 244 | 9.0 | 16.0 | 0.00 | 0.00 | 0.00 | 28 | 1021.4 |
| 20260902025504 | 76 | 230 | 7.0 | 12.0 | 0.00 | 0.00 | 0.00 | 28 | 1021.4 |
| 20260902025003 | 76 | 242 | 5.0 | 12.0 | 0.00 | 0.00 | 0.00 | 28 | 1021.4 |
| 20260902024003 | 77 | 232 | 9.0 | 14.0 | 0.00 | 0.00 | 0.00 | 28 | 1021.3 |
| 20260902023503 | 77 | 237 | 6.0 | 12.0 | 0.00 | 0.00 | 0.00 | 28 | 1021.3 |
| 20260902023004 | 77 | 251 | 9.0 | 13.0 | 0.00 | 0.00 | 0.00 | 29 | 1021.3 |
| 20260902022503 | 77 | 236 | 8.0 | 16.0 | 0.00 | 0.00 | 0.00 | 29 | 1021.0 |
| 20260902022003 | 77 | 231 | 7.0 | 15.0 | 0.00 | 0.00 | 0.00 | 29 | 1021.0 |
| 20260902021004 | 78 | 202 | 10.0 | 20.0 | 0.00 | 0.00 | 0.00 | 28 | 1020.8 |
| 20260902020504 | 78 | 205 | 12.0 | 20.0 | 0.00 | 0.00 | 0.00 | 28 | 1020.7 |
| 20260902020003 | 79 | 192 | 13.0 | 23.0 | 0.00 | 0.00 | 0.00 | 28 | 1020.6 |
| 20260902015503 | 79 | 192 | 16.0 | 24.0 | 0.00 | 0.00 | 0.00 | 27 | 1020.7 |
| 20260902015003 | 80 | 196 | 15.0 | 22.0 | 0.00 | 0.00 | 0.00 | 27 | 1020.8 |
| 20260902014003 | 81 | 189 | 17.0 | 26.0 | 0.00 | 0.00 | 0.00 | 27 | 1020.8 |
| 20260902013504 | 81 | 180 | 18.0 | 26.0 | 0.00 | 0.00 | 0.00 | 27 | 1020.9 |
| 20260902013004 | 82 | 181 | 16.0 | 23.0 | 0.00 | 0.00 | 0.00 | 26 | 1021.0 |
| 20260902012004 | 83 | 191 | 14.0 | 21.0 | 0.00 | 0.00 | 0.00 | 21 | 1021.1 |
| 20260902011503 | 83 | 191 | 15.0 | 22.0 | 0.00 | 0.00 | 0.00 | 22 | 1021.2 |
| 20260902010004 | 83 | 197 | 14.0 | 20.0 | 0.00 | 0.00 | 0.00 | 21 | 1021.5 |
| 20260902005503 | 84 | 198 | 14.0 | 20.0 | 0.00 | 0.00 | 0.00 | 21 | 1021.5 |
| 20260902004504 | 84 | 191 | 14.0 | 20.0 | 0.00 | 0.00 | 0.00 | 19 | 1021.6 |
| 20260902004004 | 85 | 202 | 14.0 | 21.0 | 0.00 | 0.00 | 0.00 | 19 | 1021.6 |
| 20260902003504 | 85 | 186 | 11.0 | 21.0 | 0.00 | 0.00 | 0.00 | 19 | 1021.7 |
| 20260902003003 | 86 | 198 | 13.0 | 20.0 | 0.00 | 0.00 | 0.00 | 19 | 1021.6 |
| 20260902002503 | 86 | 208 | 14.0 | 21.0 | 0.00 | 0.00 | 0.00 | 18 | 1021.6 |
| 20260902002004 | 86 | 215 | 14.0 | 22.0 | 0.00 | 0.00 | 0.00 | 17 | 1021.6 |
| 20260902001504 | 87 | 209 | 16.0 | 22.0 | 0.00 | 0.00 | 0.00 | 17 | 1021.6 |
| 20260902000504 | 87 | 195 | 10.0 | 18.0 | 0.00 | 0.00 | 0.00 | 17 | 1021.7 |
| 20260902000003 | 87 | 217 | 13.0 | 21.0 | 0.00 | 0.00 | 0.00 | 17 | 1021.8 |
| 20260901235504 | 87 | 218 | 13.0 | 20.0 | 0.00 | 0.00 | 0.00 | 17 | 1021.7 |
| 20260901235003 | 87 | 210 | 14.0 | 21.0 | 0.00 | 0.00 | 0.00 | 17 | 1021.7 |
| 20260901233503 | 89 | 205 | 13.0 | 20.0 | 0.00 | 0.00 | 0.00 | 15 | 1021.7 |
| 20260901233004 | 89 | 205 | 14.0 | 22.0 | 0.00 | 0.00 | 0.00 | 15 | 1021.5 |
| 20260901232503 | 89 | 191 | 14.0 | 21.0 | 0.00 | 0.00 | 0.00 | 13 | 1021.7 |
| 20260901232004 | 89 | 206 | 13.0 | 24.0 | 0.00 | 0.00 | 0.00 | 14 | 1021.7 |
| 20260901231503 | 88 | 191 | 17.0 | 24.0 | 0.00 | 0.00 | 0.00 | 14 | 1021.8 |
| 20260901231004 | 87 | 197 | 17.0 | 26.0 | 0.00 | 0.00 | 0.00 | 14 | 1021.7 |
| 20260901230504 | 88 | 183 | 20.0 | 31.0 | 0.00 | 0.00 | 0.00 | 14 | 1021.7 |
| 20260901230003 | 88 | 189 | 19.0 | 26.0 | 0.00 | 0.00 | 0.00 | 12 | 1021.7 |
| 20260901225504 | 89 | 190 | 17.0 | 29.0 | 0.00 | 0.00 | 0.00 | 11 | 1021.7 |
| 20260901225004 | 88 | 193 | 14.0 | 29.0 | 0.00 | 0.00 | 0.00 | 12 | 1021.8 |
| 20260901224504 | 88 | 178 | 19.0 | 29.0 | 0.00 | 0.00 | 0.00 | 11 | 1021.8 |
| 20260901224003 | 89 | 184 | 19.0 | 29.0 | 0.00 | 0.00 | 0.00 | 10 | 1021.8 |
| 20260901223005 | 88 | 178 | 20.0 | 33.0 | 0.00 | 0.00 | 0.00 | 9 | 1021.8 |
| 20260901222503 | 89 | 178 | 19.0 | 30.0 | 0.00 | 0.00 | 0.00 | 11 | 1021.8 |
| 20260901222004 | 88 | 184 | 19.0 | 30.0 | 0.00 | 0.00 | 0.00 | 11 | 1021.8 |
| 20260901221504 | 88 | 186 | 21.0 | 30.0 | 0.00 | 0.00 | 0.00 | 11 | 1021.9 |
| 20260901220503 | 89 | 197 | 17.0 | 28.0 | 0.00 | 0.00 | 0.00 | 10 | 1021.9 |
| 20260901220003 | 89 | 191 | 19.0 | 30.0 | 0.00 | 0.00 | 0.00 | 13 | 1021.9 |
| 20260901215504 | 89 | 191 | 20.0 | 31.0 | 0.00 | 0.00 | 0.00 | 14 | 1022.1 |
| 20260901215004 | 90 | 215 | 16.0 | 24.0 | 0.00 | 0.00 | 0.00 | 11 | 1022.1 |
| 20260901213503 | 89 | 181 | 18.0 | 26.0 | 0.00 | 0.00 | 0.00 | 12 | 1022.1 |
| 20260901213004 | 89 | 204 | 16.0 | 25.0 | 0.00 | 0.00 | 0.00 | 12 | 1022.2 |
| 20260901212503 | 89 | 201 | 14.0 | 21.0 | 0.00 | 0.00 | 0.00 | 13 | 1022.2 |
| 20260901212004 | 88 | 198 | 16.0 | 23.0 | 0.00 | 0.00 | 0.00 | 14 | 1022.3 |
| 20260901211503 | 89 | 205 | 17.0 | 24.0 | 0.00 | 0.00 | 0.00 | 11 | 1022.3 |
| 20260901210004 | 89 | 190 | 18.0 | 26.0 | 0.00 | 0.00 | 0.00 | 12 | 1022.3 |
| 20260901205504 | 89 | 207 | 18.0 | 28.0 | 0.00 | 0.00 | 0.00 | 11 | 1022.4 |
| 20260901205003 | 89 | 206 | 16.0 | 24.0 | 0.00 | 0.00 | 0.00 | 12 | 1022.3 |
| 20260901204504 | 89 | 193 | 18.0 | 26.0 | 0.00 | 0.00 | 0.00 | 12 | 1022.3 |
| 20260901204004 | 89 | 200 | 15.0 | 25.0 | 0.00 | 0.00 | 0.00 | 13 | 1022.3 |
| 20260901203004 | 88 | 207 | 16.0 | 28.0 | 0.00 | 0.00 | 0.00 | 14 | 1022.4 |
| 20260901202503 | 88 | 188 | 16.0 | 29.0 | 0.00 | 0.00 | 0.00 | 14 | 1022.6 |
| 20260901202004 | 88 | 197 | 17.0 | 25.0 | 0.00 | 0.00 | 0.00 | 14 | 1022.6 |
| 20260901201004 | 88 | 199 | 19.0 | 29.0 | 0.00 | 0.00 | 0.00 | 16 | 1022.7 |
| 20260901200504 | 88 | 203 | 16.0 | 26.0 | 0.00 | 0.00 | 0.00 | 16 | 1022.9 |
| 20260901194503 | 87 | 208 | 19.0 | 35.0 | 0.00 | 0.00 | 0.00 | 17 | 1022.9 |
| 20260901194003 | 87 | 191 | 20.0 | 29.0 | 0.00 | 0.00 | 0.00 | 16 | 1022.9 |
| 20260901193504 | 86 | 203 | 18.0 | 28.0 | 0.00 | 0.00 | 0.00 | 19 | 1023.1 |
| 20260901193004 | 87 | 196 | 18.0 | 31.0 | 0.00 | 0.00 | 0.00 | 21 | 1023.3 |
| 20260901192503 | 86 | 195 | 16.0 | 24.0 | 0.00 | 0.00 | 0.00 | 23 | 1023.4 |
| 20260901192003 | 86 | 206 | 19.0 | 30.0 | 0.00 | 0.00 | 0.00 | 24 | 1023.3 |
| 20260901191003 | 85 | 190 | 16.0 | 28.0 | 0.00 | 0.00 | 0.00 | 23 | 1023.5 |
| 20260901190504 | 85 | 181 | 18.0 | 28.0 | 0.00 | 0.00 | 0.00 | 23 | 1023.5 |
| 20260901190003 | 85 | 187 | 17.0 | 30.0 | 0.00 | 0.00 | 0.00 | 22 | 1023.5 |
| 20260901185503 | 85 | 177 | 21.0 | 32.0 | 0.00 | 0.00 | 0.00 | 23 | 1023.5 |
| 20260901185004 | 85 | 183 | 21.0 | 30.0 | 0.00 | 0.00 | 0.00 | 23 | 1023.4 |
| 20260901184504 | 85 | 217 | 17.0 | 29.0 | 0.00 | 0.00 | 0.00 | 24 | 1023.4 |
| 20260901183504 | 85 | 202 | 19.0 | 26.0 | 0.00 | 0.00 | 0.00 | 22 | 1023.4 |
| 20260901183003 | 85 | 191 | 19.0 | 31.0 | 0.00 | 0.00 | 0.00 | 23 | 1023.3 |
| 20260901182503 | 85 | 188 | 22.0 | 35.0 | 0.00 | 0.00 | 0.00 | 23 | 1023.3 |
| 20260901182003 | 85 | 199 | 20.0 | 29.0 | 0.00 | 0.00 | 0.00 | 22 | 1023.4 |
| 20260901181503 | 85 | 200 | 19.0 | 32.0 | 0.00 | 0.00 | 0.00 | 25 | 1023.6 |
| 20260901181004 | 84 | 190 | 20.0 | 31.0 | 0.00 | 0.00 | 0.00 | 23 | 1023.6 |
| 20260901180503 | 85 | 196 | 18.0 | 26.0 | 0.00 | 0.00 | 0.00 | 23 | 1023.8 |
| 20260901180005 | 85 | 202 | 18.0 | 25.0 | 0.00 | 0.00 | 0.00 | 24 | 1023.6 |
| 20260901175504 | 85 | 208 | 14.0 | 23.0 | 0.00 | 0.00 | 0.00 | 24 | 1023.8 |
| 20260901175004 | 84 | 202 | 21.0 | 43.0 | 0.00 | 0.00 | 0.00 | 23 | 1023.8 |
| 20260901174503 | 84 | 212 | 17.0 | 24.0 | 0.00 | 0.00 | 0.00 | 23 | 1023.7 |
| 20260901174003 | 84 | 201 | 19.0 | 26.0 | 0.00 | 0.00 | 0.00 | 23 | 1023.7 |
| 20260901173003 | 84 | 197 | 15.0 | 25.0 | 0.00 | 0.00 | 0.00 | 22 | 1023.6 |
| 20260901172003 | 83 | 187 | 17.0 | 25.0 | 0.00 | 0.00 | 0.00 | 23 | 1023.7 |
| 20260901171503 | 83 | 196 | 17.0 | 24.0 | 0.00 | 0.00 | 0.00 | 22 | 1023.6 |
| 20260901170503 | 83 | 218 | 14.0 | 22.0 | 0.00 | 0.00 | 0.00 | 23 | 1023.7 |
| 20260901170003 | 83 | 182 | 14.0 | 22.0 | 0.00 | 0.00 | 0.00 | 23 | 1023.7 |
| 20260901165503 | 83 | 204 | 10.0 | 20.0 | 0.00 | 0.00 | 0.00 | 24 | 1023.6 |
| 20260901165004 | 83 | 207 | 12.0 | 24.0 | 0.00 | 0.00 | 0.00 | 24 | 1023.6 |
| 20260901164504 | 83 | 204 | 12.0 | 21.0 | 0.00 | 0.00 | 0.00 | 25 | 1023.6 |
| 20260901164004 | 83 | 217 | 13.0 | 20.0 | 0.00 | 0.00 | 0.00 | 26 | 1023.6 |
| 20260901154004 | 81 | 249 | 5.0 | 12.0 | 0.00 | 0.00 | 0.00 | 28 | 1023.2 |
| 20260901153504 | 80 | 224 | 5.0 | 10.0 | 0.00 | 0.00 | 0.00 | 29 | 1023.4 |
| 20260901152504 | 78 | 25 | 0.0 | 0.0 | 0.00 | 0.00 | 0.00 | 23 | 1023.2 |
| 20260901152003 | 78 | 358 | 0.0 | 2.0 | 0.00 | 0.00 | 0.00 | 24 | 1023.2 |
| 20260901151504 | 78 | 339 | 1.0 | 5.0 | 0.00 | 0.00 | 0.00 | 26 | 1023.2 |
| 20260901151003 | 77 | 24 | 1.0 | 3.0 | 0.00 | 0.00 | 0.00 | 23 | 1023.2 |
| 20260901150503 | 78 | 25 | 1.0 | 3.0 | 0.00 | 0.00 | 0.00 | 22 | 1023.2 |
| 20260901150003 | 78 | 261 | 0.0 | 0.0 | 0.00 | 0.00 | 0.00 | 22 | 1023.2 |
| 20260901145504 | 77 | 260 | 0.0 | 0.0 | 0.00 | 0.00 | 0.00 | 22 | 1023.3 |
| 20260901144503 | 76 | 260 | 0.0 | 0.0 | 0.00 | 0.00 | 0.00 | 23 | 1023.1 |
| 20260901143503 | 74 | 261 | 0.0 | 0.0 | 0.00 | 0.00 | 0.00 | 24 | 1023.1 |
| 20260901142504 | 73 | 261 | 0.0 | 0.0 | 0.00 | 0.00 | 0.00 | 25 | 1022.9 |
| 20260901141004 | 73 | 271 | 0.0 | 3.0 | 0.00 | 0.00 | 0.00 | 23 | 1022.8 |
| 20260901140504 | 72 | 212 | 2.0 | 6.0 | 0.00 | 0.00 | 0.00 | 23 | 1022.6 |
| 20260901140003 | 72 | 223 | 3.0 | 6.0 | 0.00 | 0.00 | 0.00 | 22 | 1022.5 |
| 20260901135004 | 72 | 229 | 4.0 | 9.0 | 0.00 | 0.00 | 0.00 | 24 | 1022.4 |
| 20260901134504 | 72 | 220 | 5.0 | 10.0 | 0.00 | 0.00 | 0.00 | 22 | 1022.4 |
| 20260901134004 | 72 | 210 | 5.0 | 12.0 | 0.00 | 0.00 | 0.00 | 24 | 1022.3 |
| 20260901133503 | 72 | 213 | 5.0 | 10.0 | 0.00 | 0.00 | 0.00 | 23 | 1022.2 |
| 20260901132503 | 72 | 202 | 7.0 | 12.0 | 0.00 | 0.00 | 0.00 | 22 | 1022.1 |
| 20260901132004 | 71 | 200 | 7.0 | 12.0 | 0.00 | 0.00 | 0.00 | 22 | 1021.9 |
| 20260901131503 | 71 | 209 | 7.0 | 12.0 | 0.00 | 0.00 | 0.00 | 22 | 1021.9 |
| 20260901131003 | 71 | 203 | 6.0 | 9.0 | 0.00 | 0.00 | 0.00 | 20 | 1021.9 |
| 20260901130503 | 71 | 204 | 7.0 | 10.0 | 0.00 | 0.00 | 0.00 | 19 | 1021.9 |
| 20260901130004 | 71 | 203 | 7.0 | 10.0 | 0.00 | 0.00 | 0.00 | 18 | 1021.9 |
| 20260901125503 | 71 | 196 | 7.0 | 10.0 | 0.00 | 0.00 | 0.00 | 18 | 1022.0 |
| 20260901125003 | 72 | 209 | 7.0 | 12.0 | 0.00 | 0.00 | 0.00 | 18 | 1022.0 |
| 20260901124003 | 73 | 219 | 9.0 | 14.0 | 0.00 | 0.00 | 0.00 | 20 | 1022.0 |
| 20260901123504 | 72 | 224 | 9.0 | 14.0 | 0.00 | 0.00 | 0.00 | 23 | 1021.9 |
| 20260901123004 | 72 | 227 | 7.0 | 12.0 | 0.00 | 0.00 | 0.00 | 20 | 1022.0 |
| 20260901122503 | 72 | 216 | 7.0 | 12.0 | 0.00 | 0.00 | 0.00 | 21 | 1022.2 |
| 20260901121504 | 70 | 228 | 2.0 | 7.0 | 0.00 | 0.00 | 0.00 | 24 | 1022.2 |
| 20260901120503 | 68 | 268 | 3.0 | 7.0 | 0.00 | 0.00 | 0.00 | 24 | 1022.1 |
| 20260901115503 | 66 | 217 | 0.0 | 0.0 | 0.00 | 0.00 | 0.00 | 30 | 1022.1 |
| 20260901115003 | 66 | 217 | 0.0 | 2.0 | 0.00 | 0.00 | 0.00 | 29 | 1022.1 |
| 20260901114004 | 68 | 217 | 0.0 | 0.0 | 0.00 | 0.00 | 0.00 | 28 | 1022.3 |
| 20260901113503 | 69 | 217 | 0.0 | 5.0 | 0.00 | 0.00 | 0.00 | 28 | 1022.3 |
| 20260901113003 | 68 | 215 | 0.0 | 3.0 | 0.00 | 0.00 | 0.00 | 28 | 1022.1 |
| 20260901112004 | 67 | 225 | 0.0 | 1.0 | 0.00 | 0.00 | 0.00 | 29 | 1022.2 |
| 20260901111503 | 67 | 213 | 1.0 | 2.0 | 0.00 | 0.00 | 0.00 | 30 | 1022.2 |
| 20260901111004 | 66 | 214 | 0.0 | 1.0 | 0.00 | 0.00 | 0.00 | 30 | 1022.2 |
| 20260901110504 | 67 | 214 | 0.0 | 1.0 | 0.00 | 0.00 | 0.00 | 30 | 1022.3 |
| 20260901103504 | 66 | 214 | 2.0 | 3.0 | 0.00 | 0.00 | 0.00 | 33 | 1022.3 |
| 20260901103003 | 65 | 205 | 1.0 | 3.0 | 0.00 | 0.00 | 0.00 | 33 | 1022.2 |
| 20260901102504 | 65 | 207 | 0.0 | 1.0 | 0.00 | 0.00 | 0.00 | 33 | 1022.2 |
| 20260901102004 | 66 | 205 | 0.0 | 1.0 | 0.00 | 0.00 | 0.00 | 32 | 1022.4 |
| 20260901101504 | 67 | 205 | 0.0 | 0.0 | 0.00 | 0.00 | 0.00 | 32 | 1022.5 |
| 20260901101003 | 67 | 207 | 0.0 | 0.0 | 0.00 | 0.00 | 0.00 | 32 | 1022.3 |
| 20260901100004 | 65 | 205 | 0.0 | 0.0 | 0.00 | 0.00 | 0.00 | 34 | 1022.3 |
| 20260901095503 | 64 | 204 | 0.0 | 0.0 | 0.00 | 0.00 | 0.00 | 35 | 1022.3 |
| 20260901095004 | 63 | 204 | 0.0 | 0.0 | 0.00 | 0.00 | 0.00 | 35 | 1022.3 |
| 20260901094504 | 63 | 202 | 0.0 | 0.0 | 0.00 | 0.00 | 0.00 | 35 | 1022.2 |
| 20260901094003 | 64 | 202 | 0.0 | 0.0 | 0.00 | 0.00 | 0.00 | 34 | 1022.1 |
| 20260901093504 | 65 | 202 | 0.0 | 0.0 | 0.00 | 0.00 | 0.00 | 33 | 1022.0 |
| 20260901093003 | 66 | 202 | 0.0 | 0.0 | 0.00 | 0.00 | 0.00 | 33 | 1022.2 |
| 20260901092503 | 66 | 202 | 0.0 | 0.0 | 0.00 | 0.00 | 0.00 | 33 | 1022.2 |
| 20260901092004 | 66 | 202 | 0.0 | 0.0 | 0.00 | 0.00 | 0.00 | 34 | 1022.3 |
| 20260901091003 | 66 | 201 | 0.0 | 1.0 | 0.00 | 0.00 | 0.00 | 33 | 1022.3 |
| 20260901090504 | 67 | 200 | 0.0 | 1.0 | 0.00 | 0.00 | 0.00 | 33 | 1022.3 |
| 20260901090004 | 67 | 192 | 2.0 | 3.0 | 0.00 | 0.00 | 0.00 | 33 | 1022.2 |
| 20260901085503 | 66 | 192 | 0.0 | 0.0 | 0.00 | 0.00 | 0.00 | 35 | 1022.3 |
| 20260901085004 | 66 | 192 | 0.0 | 2.0 | 0.00 | 0.00 | 0.00 | 36 | 1022.3 |
| 20260901084503 | 66 | 241 | 0.0 | 0.0 | 0.00 | 0.00 | 0.00 | 34 | 1022.3 |
| 20260901084003 | 67 | 242 | 0.0 | 0.0 | 0.00 | 0.00 | 0.00 | 34 | 1022.2 |
| 20260901083503 | 67 | 242 | 0.0 | 0.0 | 0.00 | 0.00 | 0.00 | 34 | 1022.1 |
| 20260901083003 | 67 | 242 | 0.0 | 0.0 | 0.00 | 0.00 | 0.00 | 35 | 1022.2 |
| 20260901082503 | 66 | 206 | 0.0 | 1.0 | 0.00 | 0.00 | 0.00 | 35 | 1022.1 |
| 20260901081504 | 66 | 175 | 1.0 | 3.0 | 0.00 | 0.00 | 0.00 | 34 | 1022.2 |
| 20260901081004 | 67 | 186 | 0.0 | 1.0 | 0.00 | 0.00 | 0.00 | 34 | 1022.2 |
| 20260901080503 | 67 | 187 | 1.0 | 2.0 | 0.00 | 0.00 | 0.00 | 34 | 1022.2 |
| 20260901080004 | 67 | 225 | 0.0 | 0.0 | 0.00 | 0.00 | 0.00 | 34 | 1022.3 |
| 20260901075503 | 69 | 225 | 0.0 | 0.0 | 0.00 | 0.00 | 0.00 | 33 | 1022.4 |
| 20260901075003 | 70 | 235 | 0.0 | 0.0 | 0.00 | 0.00 | 0.00 | 32 | 1022.4 |
| 20260901074504 | 71 | 263 | 0.0 | 0.0 | 0.00 | 0.00 | 0.00 | 32 | 1022.4 |
| 20260901074004 | 71 | 263 | 0.0 | 0.0 | 0.00 | 0.00 | 0.00 | 31 | 1022.4 |
| 20260901073504 | 72 | 263 | 0.0 | 2.0 | 0.00 | 0.00 | 0.00 | 31 | 1022.2 |
| 20260901073003 | 72 | 263 | 0.0 | 3.0 | 0.00 | 0.00 | 0.00 | 32 | 1022.3 |
| 20260901072504 | 72 | 264 | 0.0 | 3.0 | 0.00 | 0.00 | 0.00 | 32 | 1022.3 |
| 20260901072003 | 72 | 264 | 1.0 | 2.0 | 0.00 | 0.00 | 0.00 | 32 | 1022.4 |
| 20260901071504 | 72 | 254 | 0.0 | 1.0 | 0.00 | 0.00 | 0.00 | 32 | 1022.4 |
| 20260901071005 | 72 | 283 | 0.0 | 2.0 | 0.00 | 0.00 | 0.00 | 32 | 1022.4 |
| 20260901070003 | 73 | 274 | 1.0 | 3.0 | 0.00 | 0.00 | 0.00 | 32 | 1022.3 |
| 20260901065503 | 73 | 243 | 1.0 | 3.0 | 0.00 | 0.00 | 0.00 | 32 | 1022.3 |
| 20260901065003 | 73 | 273 | 0.0 | 3.0 | 0.00 | 0.00 | 0.00 | 32 | 1022.4 |
| 20260901064503 | 74 | 261 | 2.0 | 6.0 | 0.00 | 0.00 | 0.00 | 32 | 1022.2 |
| 20260901063004 | 72 | 271 | 0.0 | 0.0 | 0.00 | 0.00 | 0.00 | 34 | 1022.2 |
| 20260901062504 | 73 | 271 | 0.0 | 0.0 | 0.00 | 0.00 | 0.00 | 34 | 1022.2 |